Location: Caltech
(34.1382°N, 118.1253°W)
Time: 12:30:54
(UTC-07:00)

SEDSat Delta rocket - Visible Passes

Search period start: 26 April 2017 00:00
Search period end: 06 May 2017 00:00
Orbit: 533 x 1002 km, 31.4° (Epoch: 25 April)

Date Brightness Start Highest point End Pass type
(mag) Time Alt. Az. Time Alt. Az. Time Alt. Az.
26 Apr 3.5 21:28:14 10° W 21:33:32 68° S 21:34:36 56° SE visible
26 Apr 6.1 23:14:16 10° W 23:14:44 12° W 23:14:44 12° W visible
27 Apr 3.5 20:48:00 10° W 20:53:02 67° S 20:56:22 25° ESE visible
27 Apr 5.1 22:33:55 10° W 22:36:30 28° WSW 22:36:30 28° WSW visible
28 Apr 3.5 20:07:47 10° WSW 20:12:33 65° S 20:18:05 10° E visible
28 Apr 3.9 21:53:37 10° W 21:58:14 52° SSW 21:58:14 52° SSW visible
29 Apr 3.6 21:13:20 10° W 21:18:17 57° S 21:19:56 40° SE visible
29 Apr 6.0 22:59:37 10° W 23:00:04 12° WSW 23:00:04 12° WSW visible
30 Apr 3.5 20:33:07 10° W 20:37:49 59° S 20:41:38 19° ESE visible
30 Apr 5.1 22:19:14 10° W 22:21:45 24° WSW 22:21:45 24° WSW visible
01 May 3.5 19:52:54 10° W 19:57:25 60° S 20:02:34 10° ESE visible
01 May 4.3 21:38:55 10° W 21:43:27 34° SSW 21:43:28 34° SSW visible
02 May 4.2 20:58:38 10° W 21:03:00 36° SSW 21:05:10 26° SSE visible
03 May 4.0 20:18:22 10° W 20:22:36 39° SSW 20:26:55 12° SE visible
03 May 5.5 22:05:27 10° WSW 22:07:03 14° SW 22:07:03 14° SW visible
04 May 5.1 21:24:55 10° WSW 21:28:04 17° SSW 21:28:49 17° SSW visible
05 May 5.0 20:44:29 10° WSW 20:47:42 19° SSW 20:50:37 12° SSE visible
